Volver al catálogo

FENGYUN 1C DEB

ActivoSSO
NORAD 37920·DEBRIS·🇨🇳 China

Lanzado May 10, 1999 desde Taiyuan Satellite Launch Center

Loading…

Próximos Pases (próximas 24 horas)

TLE

EnvejeciendoSource: Space-Track

Época: Sep 7, 2026, 04:29 UTC

1 37920U 99025ENV 26250.18726962  .00002464  00000-0  10109-2 0  9991
2 37920  98.8294 331.7554 0055535 163.0573 228.6696 14.27170610679672

Sigue FENGYUN 1C DEB en tiempo real con AllMySat

Download on the App Store